[[{"header":{"parameterUnit":"m.s-1","parameterCategory":1,"la1":30.2991,"la2":30.254,"lo1":-89.0895,"lo2":-89.0444,"dy":0.0017,"dx":0.0017,"nx":28,"ny":28,"refTime":"2024-12-08T03:00:00:Z","depth":0,"parameterNumber":2,"parameterNumberName":"U-component_of_WINDS"},"data":[0,0,0,0,0,0,0,0,0,0,0,0,0,0,0,0,0,0,0,0,0,0,0,0,0,0,0,0,0,0,0,0,0,0,0,0,0,0,0,0,0,0,0,0,0,0,0,0,0,0,0,0,0,0,0,0,0,0,-2.4124,-2.4124,0,-2.4129,-2.4129,-2.4129,-2.4036,-2.4034,-2.4031,-2.4029,-2.4036,-2.4039,-2.4041,0,0,0,0,0,0,0,0,0,0,0,0,0,-2.4034,-2.4037,-2.4124,-2.4124,-2.4124,-2.4129,-2.4129,-2.4129,-2.4037,-2.4034,-2.4031,-2.4028,-2.4035,-2.4038,-2.4042,0,0,0,0,0,0,0,0,0,0,0,0,0,-2.406,-2.4037,-2.4124,-2.4079,-2.4074,-2.4129,-2.4129,-2.413,-2.4037,-2.4034,-2.403,-2.4026,-2.4034,-2.4038,-2.4042,-2.4141,0,0,-2.4054,-2.4055,0,0,0,0,0,0,0,0,-2.4059,-2.4063,-2.4085,-2.4082,-2.4077,-2.4078,-2.41,-2.4134,-2.4038,-2.4052,-2.4029,-2.4024,-2.4053,-2.4055,-2.4065,-2.4142,-2.4142,-2.4054,-2.4056,-2.4058,-2.4059,0,0,0,0,0,0,0,-2.4057,-2.4063,-2.4126,-2.4086,-2.4081,-2.4058,-2.4058,-2.4106,-2.4074,-2.405,-2.4043,-2.4045,-2.4051,-2.4061,-2.4064,-2.4142,-2.4054,-2.4057,-2.406,-2.4061,-2.4299,-2.4303,0,0,0,0,0,0,-2.4061,-2.4062,-2.4126,-2.4126,-2.4058,-2.4063,-2.4062,-2.4082,-2.4073,-2.4068,-2.4048,-2.4041,-2.4057,-2.406,-2.4064,-2.4179,-2.4058,-2.4061,-2.4064,-2.4295,-2.43,-2.4304,0,0,0,0,0,0,-2.406,-2.4068,-2.4126,-2.4092,-2.4098,-2.4068,-2.4091,-2.4084,-2.4095,-2.4072,-2.4065,-2.4065,-2.4054,-2.4059,-2.4122,-2.4178,-2.4063,-2.4067,-2.429,-2.4296,-2.4302,-2.441,0,0,0,0,0,0,-2.4058,-2.4068,-2.4105,-2.4094,-2.41,-2.4184,-2.4095,-2.4087,-2.4101,-2.4091,-2.4086,-2.4081,-2.4051,-2.4117,-2.4126,-2.4181,-2.407,-2.4285,-2.4293,-2.43,-2.4401,-2.4419,-2.4434,0,0,0,0,0,-2.4055,-2.4136,-2.4108,-2.4116,-2.4146,-2.4187,-2.4191,-2.4154,-2.4106,-2.4143,-2.4128,-2.4082,-2.417,-2.4124,-2.4134,-2.4191,-2.4281,-2.4291,-2.43,-2.4394,-2.4415,-2.4433,0,0,0,0,0,0,-2.4156,-2.4134,-2.4102,-2.4182,-2.4187,-2.4172,-2.4218,-2.4178,-2.4198,-2.4188,-2.4142,-2.4141,-2.4212,-2.4208,-2.4157,-2.4285,-2.4217,-2.4229,-2.4286,-2.4306,-2.4322,-2.4322,-2.4073,0,0,0,0,0,-2.4188,-2.4223,-2.4202,-2.4274,-2.4278,-2.4248,-2.4264,-2.4235,-2.4239,-2.4241,-2.4231,-2.4236,-2.4265,-2.4285,-2.4311,-2.44,-2.4397,-2.4444,-2.446,-2.4473,-2.4484,-2.4529,-2.455,-2.4334,-2.4334,-2.4334,0,0,-2.4254,-2.4246,-2.4271,-2.4295,-2.4295,-2.4332,-2.425,-2.4294,-2.4321,-2.4248,-2.4306,-2.4299,-2.4302,-2.4379,-2.4412,-2.4377,-2.4543,-2.4485,-2.4496,-2.4499,-2.4541,-2.4561,-2.4579,-2.434,-2.4339,-2.4338,0,0,-2.4393,-2.4391,-2.445,-2.4452,-2.4453,-2.4432,-2.4446,-2.4436,-2.4428,-2.4486,-2.4432,-2.4464,-2.4515,-2.4519,-2.4528,-2.4667,-2.4624,-2.4677,-2.4762,-2.4807,-2.4824,-2.4839,-2.4888,-2.4906,-2.4687,-2.4687,-2.4688,0,-2.4475,-2.4528,-2.4486,-2.4532,-2.4544,-2.4478,-2.4538,-2.4542,-2.4553,-2.4562,-2.4523,-2.4585,-2.4582,-2.4658,-2.4692,-2.4702,-2.4716,-2.4677,-2.4825,-2.4839,-2.4853,-2.4899,-2.4917,-2.4694,-2.4693,-2.4692,-2.4692,0,-2.4628,-2.4666,-2.4714,-2.4724,-2.4741,-2.4795,-2.476,-2.4783,-2.4752,-2.4735,-2.4795,-2.4789,-2.4812,-2.4828,-2.4799,-2.49,-2.4878,-2.4833,-2.4763,-2.488,-2.4923,-2.494,-2.4703,-2.47,-2.4699,-2.4697,0,0,-2.4833,-2.4817,-2.4835,-2.4838,-2.4834,-2.4863,-2.4913,-2.4934,-2.4954,-2.4963,-2.5003,-2.5047,-2.5005,-2.5015,-2.4986,-2.5025,-2.5134,-2.4975,-2.4974,-2.5004,-2.5244,-2.5278,-2.5299,-2.5106,-2.5109,-2.5112,-2.5243,0,-2.4967,-2.505,-2.5013,-2.51,-2.5134,-2.5072,-2.5115,-2.5117,-2.5103,-2.513,-2.5113,-2.5145,-2.5087,-2.5092,-2.5129,-2.5114,-2.5182,-2.5104,-2.5143,-2.5145,-2.5144,-2.5321,-2.5357,-2.5482,-2.526,-2.5263,-2.5265,0,-2.5135,-2.5149,-2.524,-2.5228,-2.5241,-2.528,-2.5296,-2.5322,-2.5323,-2.531,-2.5321,-2.5282,-2.533,-2.5261,-2.5326,-2.5273,-2.5287,-2.5282,-2.5286,-2.5288,-2.5212,-2.5328,-2.5521,-2.5539,-2.5291,-2.5288,-2.5287,0,-2.5274,-2.5316,-2.5375,-2.5379,-2.5368,-2.5396,-2.5393,-2.539,-2.5405,-2.5419,-2.5427,-2.5448,-2.5458,-2.5475,-2.5442,-2.5395,-2.5512,-2.544,-2.5502,-2.5503,-2.5529,-2.5528,-2.5727,-2.5539,-2.5539,-2.5539,-2.5538,0,-2.5427,-2.5485,-2.5437,-2.5473,-2.5536,-2.5492,-2.5556,-2.5545,-2.5543,-2.5576,-2.5524,-2.5557,-2.5512,-2.554,-2.5515,-2.5572,-2.5578,-2.5568,-2.5561,-2.5573,-2.5574,-2.5581,-2.5572,-2.5543,-2.5542,-2.5541,-2.5541,0,-2.5593,-2.5563,-2.5623,-2.5606,-2.5603,-2.565,-2.5636,-2.5669,-2.565,-2.5692,-2.57,-2.5671,-2.5701,-2.567,-2.5699,-2.5682,-2.5759,-2.5739,-2.5758,-2.5753,-2.5815,-2.581,-2.6026,-2.6051,-2.5848,-2.585,-2.5852,0,-2.5693,-2.5736,-2.5723,-2.5741,-2.574,-2.577,-2.5784,-2.5743,-2.576,-2.5763,-2.5796,-2.5821,-2.584,-2.5891,-2.5873,-2.5894,-2.5874,-2.5948,-2.5877,-2.5887,-2.5875,-2.5872,-2.5876,-2.5963,-2.5965,-2.5967,-2.5969,0,-2.5874,-2.5856,-2.5878,-2.5895,-2.5912,-2.5924,-2.5931,-2.5949,-2.5906,-2.5928,-2.5958,-2.5972,-2.6,-2.6026,-2.6042,-2.6038,-2.5997,-2.5991,-2.6006,-2.6019,-2.6028,-2.6023,-2.5797,-2.5987,-2.5985,-2.5984,-2.5983,-2.5982,-2.6009,-2.6043,-2.6039,-2.6065,-2.6066,-2.6073,-2.6103,-2.6087,-2.6111,-2.613,-2.6104,-2.6141,-2.614,-2.6156,-2.6157,-2.6185,-2.6154,-2.6177,-2.6182,-2.6188,-2.6197,-2.6024,-2.6188,-2.6188,-2.6187,-2.6187,-2.6186,0,-2.6186,-2.618,-2.6204,-2.6215,-2.6235,-2.6193,-2.6198,-2.6218,-2.6251,-2.6253,-2.6271,-2.6305,-2.6329,-2.6312,-2.6333,-2.6359,-2.634,-2.6366,-2.6363,-2.6363,-2.6224,-2.6209,-2.638,-2.638,-2.638,-2.638,-2.638,-2.638,-2.6281,-2.6336,-2.6318,-2.6373,-2.6366,-2.6401,-2.6407,-2.6414,-2.6415,-2.6455,-2.6474,-2.6463,-2.6457,-2.6476,-2.6497,-2.6491,-2.6501,-2.6533,-2.6521,-2.6392,-2.6373,-2.6355,-2.634,-2.6536,-2.6536,-2.6657,-2.6658,-2.6659]},{"header":{"parameterUnit":"m.s-1","parameterCategory":1,"la1":30.2991,"la2":30.254,"lo1":-89.0895,"lo2":-89.0444,"dy":0.0017,"dx":0.0017,"nx":28,"ny":28,"refTime":"2024-12-08T03:00:00:Z","depth":0,"parameterNumber":3,"parameterNumberName":"V-component_of_WINDS"},"data":[0,0,0,0,0,0,0,0,0,0,0,0,0,0,0,0,0,0,0,0,0,0,0,0,0,0,0,0,0,0,0,0,0,0,0,0,0,0,0,0,0,0,0,0,0,0,0,0,0,0,0,0,0,0,0,0,0,0,1.1248,1.1248,0,1.1237,1.1237,1.1237,1.1186,1.1185,1.1183,1.1182,1.1172,1.1173,1.1173,0,0,0,0,0,0,0,0,0,0,0,0,0,1.1226,1.1227,1.1248,1.1248,1.1248,1.1237,1.1237,1.1237,1.1186,1.1185,1.1183,1.1182,1.1171,1.1172,1.1173,0,0,0,0,0,0,0,0,0,0,0,0,0,1.1228,1.1227,1.1248,1.1221,1.1219,1.1237,1.1237,1.1237,1.1186,1.1185,1.1183,1.1181,1.1171,1.1172,1.1174,1.1217,0,0,1.1177,1.1178,0,0,0,0,0,0,0,0,1.1228,1.1229,1.1225,1.1223,1.122,1.1211,1.1225,1.123,1.1187,1.1199,1.1182,1.118,1.1186,1.1186,1.1188,1.1217,1.1216,1.1177,1.1178,1.1179,1.1179,0,0,0,0,0,0,0,1.1228,1.1229,1.1244,1.1225,1.1222,1.121,1.1208,1.1226,1.1203,1.1198,1.1194,1.1193,1.1185,1.1187,1.1187,1.1216,1.1177,1.1179,1.1179,1.118,1.128,1.1282,0,0,0,0,0,0,1.1231,1.1229,1.1244,1.1243,1.122,1.1212,1.121,1.1216,1.1202,1.1199,1.1195,1.1191,1.1186,1.1186,1.1187,1.1237,1.1179,1.118,1.1181,1.1278,1.128,1.1282,0,0,0,0,0,0,1.1231,1.1233,1.1245,1.1235,1.1236,1.1214,1.1221,1.1217,1.1219,1.12,1.1196,1.1201,1.1184,1.1185,1.121,1.1236,1.118,1.1182,1.1276,1.1279,1.1281,1.1338,0,0,0,0,0,0,1.1231,1.1233,1.1249,1.1236,1.1236,1.1268,1.1223,1.1218,1.1221,1.1216,1.1205,1.1202,1.1183,1.1208,1.1211,1.1237,1.1183,1.1273,1.1277,1.128,1.1334,1.1342,1.135,0,0,0,0,0,1.123,1.1266,1.1251,1.1253,1.1256,1.1269,1.127,1.1247,1.1223,1.124,1.1228,1.1202,1.1233,1.1211,1.1214,1.124,1.1272,1.1276,1.128,1.133,1.1341,1.135,0,0,0,0,0,0,1.1283,1.1264,1.1246,1.1279,1.1276,1.1261,1.128,1.1259,1.1263,1.1258,1.123,1.1228,1.1257,1.1251,1.1228,1.1282,1.1248,1.1253,1.1285,1.1295,1.1303,1.1304,1.1184,0,0,0,0,0,1.1299,1.1311,1.1293,1.1324,1.1323,1.1302,1.1307,1.129,1.1286,1.1285,1.1274,1.1272,1.1281,1.1287,1.1295,1.1332,1.133,1.1352,1.136,1.1367,1.1371,1.1391,1.1401,1.1297,1.1296,1.1296,0,0,1.1331,1.1322,1.1331,1.1334,1.133,1.1344,1.1302,1.1318,1.1327,1.1287,1.131,1.1303,1.1298,1.1329,1.1343,1.1325,1.14,1.1372,1.1378,1.1379,1.1397,1.1407,1.1415,1.1299,1.1299,1.1298,0,0,1.1397,1.1391,1.1416,1.1412,1.1407,1.1392,1.1398,1.1386,1.138,1.1402,1.1372,1.1384,1.14,1.1397,1.1399,1.1464,1.1441,1.1467,1.1509,1.1529,1.1537,1.1544,1.1568,1.1576,1.1472,1.1472,1.1472,0,1.1438,1.1457,1.1431,1.1449,1.1452,1.1416,1.1441,1.1439,1.1436,1.1438,1.1419,1.1438,1.1432,1.1463,1.1479,1.1481,1.1487,1.1468,1.1538,1.1545,1.1551,1.1573,1.1582,1.1475,1.1475,1.1474,1.1474,0,1.1507,1.1521,1.1542,1.1539,1.1544,1.1566,1.1544,1.1552,1.1534,1.1522,1.1546,1.1537,1.1542,1.1548,1.1532,1.1577,1.1566,1.1543,1.1508,1.1565,1.1585,1.1593,1.148,1.1479,1.1478,1.1477,0,0,1.1606,1.159,1.1598,1.1596,1.1587,1.1598,1.1618,1.1622,1.163,1.1629,1.1645,1.1659,1.1638,1.1639,1.1621,1.1639,1.1691,1.1613,1.1612,1.1628,1.1741,1.1759,1.1769,1.1676,1.1677,1.1678,1.1741,0,1.1669,1.1702,1.168,1.1717,1.1729,1.1695,1.1712,1.1709,1.1698,1.1708,1.1696,1.1707,1.1677,1.1678,1.1693,1.1682,1.1713,1.1677,1.1691,1.1692,1.1693,1.1779,1.1798,1.1858,1.1749,1.175,1.1751,0,1.1747,1.1749,1.1787,1.1776,1.178,1.1796,1.1799,1.1808,1.1803,1.1794,1.1796,1.1774,1.1793,1.1759,1.1785,1.1761,1.1765,1.1761,1.1762,1.1763,1.1725,1.1783,1.1877,1.1886,1.1764,1.1763,1.1762,0,1.1816,1.1828,1.1852,1.1852,1.184,1.1852,1.1847,1.1841,1.1845,1.1847,1.185,1.1855,1.1857,1.1862,1.1842,1.1819,1.1871,1.1835,1.1864,1.1865,1.1877,1.1876,1.1973,1.188,1.188,1.1879,1.1879,0,1.1888,1.1913,1.1883,1.1898,1.1925,1.1899,1.1926,1.1918,1.1913,1.1926,1.1897,1.191,1.1883,1.1893,1.1878,1.1902,1.1903,1.1897,1.1893,1.19,1.1901,1.1902,1.1898,1.1882,1.1881,1.1881,1.188,0,1.1969,1.1951,1.1975,1.1961,1.1958,1.1978,1.1966,1.1979,1.1967,1.1984,1.1986,1.1967,1.1977,1.1958,1.1966,1.1956,1.199,1.1979,1.1991,1.1988,1.2019,1.2016,1.212,1.2133,1.2031,1.2032,1.2033,0,1.2017,1.2035,1.2023,1.2029,1.2026,1.2037,1.2041,1.2017,1.2022,1.2019,1.2033,1.2041,1.2046,1.2065,1.2051,1.2058,1.2047,1.2083,1.2048,1.2054,1.2048,1.2047,1.2049,1.209,1.2091,1.2092,1.2093,0,1.2104,1.2093,1.21,1.2104,1.211,1.2112,1.2112,1.2119,1.2093,1.2101,1.2111,1.2115,1.2123,1.2132,1.2135,1.213,1.2108,1.2104,1.2112,1.2119,1.2126,1.2123,1.2011,1.2102,1.2101,1.2101,1.21,1.21,1.217,1.2184,1.2178,1.2186,1.2184,1.2184,1.2196,1.2185,1.2193,1.2198,1.2183,1.2197,1.2192,1.2194,1.2192,1.2202,1.2186,1.2197,1.2199,1.2202,1.2207,1.2124,1.2203,1.2203,1.2202,1.2202,1.2202,0,1.2255,1.2249,1.2257,1.2258,1.2265,1.2243,1.2241,1.2249,1.2261,1.2259,1.2264,1.2276,1.2284,1.2272,1.2278,1.2289,1.2279,1.2292,1.2291,1.229,1.2221,1.2215,1.23,1.23,1.23,1.23,1.23,1.23,1.23,1.2323,1.2313,1.2335,1.2328,1.2342,1.2343,1.2343,1.2341,1.2356,1.2362,1.2354,1.2347,1.2353,1.2359,1.2356,1.2359,1.2376,1.2368,1.2304,1.2295,1.2286,1.2279,1.2377,1.2377,1.2436,1.2437,1.2437]}]]